Location: Goettingen
(51.5300°N, 9.9433°E)
Time: 10:27:04
(UTC+02:00)

ISS - Pass Details

Date: 18 May 2019
Orbit: 407 x 410 km, 51.6° (Epoch: 21 May)

Event Time Altitude Azimuth Distance (km) Brightness Sun altitude
Rises 02:55:15 0° 281° (W) 2,338 -0.1 -15.8°
Reaches altitude 10° 02:57:20 10° 279° (W) 1,476 -1.1 -15.7°
Maximum altitude 03:00:38 69° 197° (SSW) 443 -3.9 -15.5°
Drops below altitude 10° 03:03:55 10° 113° (ESE) 1,474 -0.9 -15.2°
Sets 03:06:01 0° 111° (ESE) 2,334 0.1 -15.1°
